Regional Weather Roundup
Issued by NWS Little Rock, AR

Home | Current Version | Previous Version | Graphics & Text | Print | Product List | Glossary On
Versions: 1 2 3 4 5 6 7 8 9 10 11 12 13 14 15 16 17 18 19 20 21 22 23 24 25 26 27 28 29 30 31 32 33 34 35 36 37 38 39 40 41 42 43 44 45 46 47 48 49
000
ASUS44 KLZK 242205
RWRLZK

WEATHER ROUNDUP FOR ARKANSAS
NATIONAL WEATHER SERVICE LITTLE ROCK AR
400 PM CST WED DEC 24 2014

NOTE: "FAIR" INDICATES FEW OR NO CLOUDS BELOW 12,000 FEET WITH NO
SIGNIFICANT WEATHER AND/OR OBSTRUCTIONS TO VISIBILITY.

ARZ001-003-010-029-242300-
NORTHWEST ARKANSAS

CITY           SKY/WX    TMP DP  RH WIND       PRES   REMARKS
FAYETTEVILLE   CLOUDY    37  32  82 NW12      29.89R
FORT SMITH     CLOUDY    42  32  67 W16       29.94R
HARRISON       CLOUDY    38  31  76 W9G22     29.82R
BENTONVILLE    CLOUDY    37  30  75 NW13      29.89R
ROGERS         CLOUDY    36  32  85 W12G21    29.88R
SILOAM SPGS    CLOUDY    37  28  70 W9        29.90R
HIGHFILL       CLOUDY    37  32  82 NW13      29.88R
SPRINGDALE     CLOUDY    37  32  81 NW14      29.90R
$$

ARZ004-005-016-242300-
NORTH CENTRAL ARKANSAS

CITY           SKY/WX    TMP DP  RH WIND       PRES   REMARKS
BATESVILLE     CLOUDY    43  32  65 W8        29.83R
FLIPPIN        CLOUDY    39  30  70 W9        29.83R
MTN HOME       CLOUDY    39  31  72 VRB7G17   29.81R
$$

ARZ040-041-242300-
WEST CENTRAL ARKANSAS

CITY           SKY/WX    TMP DP  RH WIND       PRES   REMARKS
MENA           CLOUDY    41  34  75 W8        29.93R
MOUNT IDA      CLOUDY    42  32  67 VRB6G20   29.89R
$$

ARZ009-017-025-026-028-242300-
NORTHEAST ARKANSAS

CITY           SKY/WX    TMP DP  RH WIND       PRES   REMARKS
CORNING        FAIR      41  37  87 W12       29.81R
JONESBORO      CLOUDY    43  35  73 W13       29.82R
NEWPORT        CLOUDY    43  35  73 W12       29.85R
WALNUT RIDGE   CLOUDY    43  34  70 W9        29.81R
BLYTHEVILLE    CLOUDY    43  37  79 W10       29.81R
$$

ARZ022-023-033-042-044-242300-
CENTRAL ARKANSAS

CITY           SKY/WX    TMP DP  RH WIND       PRES   REMARKS
LITTLE ROCK    CLOUDY    45  31  58 W14       29.89R
N LITTLE ROCK  CLOUDY    44  36  73 W6G15     29.89R
JACKSONVILLE   CLOUDY    45  33  64 W8        29.87R
SEARCY         CLOUDY    45  36  70 VRB6      29.88R
HOT SPRINGS    CLOUDY    43  32  65 W8G20     29.91R
RUSSELLVILLE   CLOUDY    43  32  65 W13G21    29.89R
CLINTON        CLOUDY    45  32  61 W7        29.87R
$$

ARZ036-242300-
EAST ARKANSAS

CITY           SKY/WX    TMP DP  RH WIND       PRES   REMARKS
WEST MEMPHIS   LGT RAIN  43  38  82 W8G18     29.84R
$$

ARZ050-053-066-070-073-242300-
SOUTHWEST ARKANSAS

CITY           SKY/WX    TMP DP  RH WIND       PRES   REMARKS
ARKADELPHIA    MOCLDY    45  36  70 W7        29.95R
CAMDEN         CLOUDY    46  32  57 MISG      29.95R
TEXARKANA      CLOUDY    45  31  58 NW14G23   29.97R
EL DORADO      CLOUDY    44  35  70 W13       29.96R
DE QUEEN       CLOUDY    44  32  62 W13G20    29.96R
$$

ARZ056-057-069-242300-
SOUTHEAST ARKANSAS

CITY           SKY/WX    TMP DP  RH WIND       PRES   REMARKS
PINE BLUFF     LGT RAIN  44  35  70 W12       29.91R
STUTTGART      CLOUDY    45  34  65 W12       29.89R
MONTICELLO     LGT RAIN  43  38  82 W9        29.92R

$$





USA.gov is the U.S. government's official web portal to all federal, state and local government web resources and services.